CW9721 Weather Reports


time (UTC)temp
C
wind
direction
speed
KPH
gust
KPH
rain 1hr
cm
rain 24hr
cm
rain mn
cm
humidity
%
barometer
mb
20260505152914 25 216 8.0 17.7 0.00 0.00 0.00 47 1015.1
20260505152338 25 216 6.4 17.7 0.00 0.00 0.00 48 1015.0
20260505151850 25 269 6.4 29.0 0.00 0.00 0.00 50 1014.9
20260505150405 25 214 16.1 33.8 0.00 0.00 0.00 47 1015.1
20260505140341 22 178 8.0 14.5 0.00 0.00 0.00 55 1015.3
20260505124848 20 173 8.0 33.8 0.00 0.00 0.00 61 1015.4
20260505124353 20 188 9.7 22.5 0.00 0.00 0.00 63 1015.5
20260505123905 19 154 6.4 22.5 0.00 0.00 0.00 64 1015.4
20260505122836 18 236 4.8 20.9 0.00 0.00 0.00 68 1015.5
20260505122402 18 132 8.0 20.9 0.00 0.00 0.00 69 1015.4
20260505121850 17 161 6.4 22.5 0.00 0.00 0.00 71 1015.4
20260505121347 16 209 9.7 20.9 0.00 0.00 0.00 72 1015.3
20260505120853 16 180 8.0 20.9 0.00 0.00 0.00 73 1015.3
20260505120417 16 267 11.3 20.9 0.00 0.00 0.00 74 1015.2
20260505115917 16 184 6.4 20.9 0.00 0.00 0.00 75 1015.2
20260505115327 15 193 8.0 17.7 0.00 0.00 0.00 76 1015.3
20260505114824 15 209 9.7 17.7 0.00 0.00 0.00 77 1015.3
20260505114344 15 203 3.2 12.9 0.00 0.00 0.00 78 1015.3
20260505113850 15 198 4.8 12.9 0.00 0.00 0.00 79 1015.2
20260505113409 15 192 3.2 16.1 0.00 0.00 0.00 79 1015.2
20260505112913 14 167 4.8 16.1 0.00 0.00 0.00 79 1015.2
20260505112345 14 171 4.8 11.3 0.00 0.00 0.00 79 1015.1
20260505111913 14 205 4.8 16.1 0.00 0.00 0.00 79 1015.1
20260505111409 14 188 4.8 16.1 0.00 0.00 0.00 79 1015.1
20260505110931 14 192 4.8 12.9 0.00 0.00 0.00 79 1015.1
20260505110359 14 195 4.8 11.3 0.00 0.00 0.00 79 1015.0
20260505101845 14 196 4.8 12.9 0.00 0.00 0.00 78 1014.6
20260505101340 14 242 4.8 12.9 0.00 0.00 0.00 78 1014.5
20260505100833 14 248 3.2 12.9 0.00 0.00 0.00 78 1014.5
20260505100403 14 232 4.8 11.3 0.00 0.00 0.00 78 1014.4
20260505095838 14 189 6.4 12.9 0.00 0.00 0.00 77 1014.3
20260505095406 14 187 4.8 12.9 0.00 0.00 0.00 77 1014.3
20260505094911 14 176 6.4 11.3 0.00 0.00 0.00 77 1014.3
20260505094414 14 233 4.8 14.5 0.00 0.00 0.00 76 1014.2
20260505093908 15 217 4.8 14.5 0.00 0.00 0.00 76 1014.0
20260505092824 15 181 4.8 14.5 0.00 0.00 0.00 76 1013.9
20260505092325 15 171 6.4 14.5 0.00 0.00 0.00 75 1013.9
20260505091840 15 184 4.8 12.9 0.00 0.00 0.00 75 1013.9
20260505091331 15 184 6.4 12.9 0.00 0.00 0.00 75 1013.9
20260505090833 15 199 4.8 12.9 0.00 0.00 0.00 74 1013.9
20260505090340 15 183 3.2 14.5 0.00 0.00 0.00 74 1013.9
20260505085826 15 193 4.8 14.5 0.00 0.00 0.00 74 1013.8
20260505085356 15 214 6.4 12.9 0.00 0.00 0.00 73 1013.8
20260505084923 15 196 4.8 12.9 0.00 0.00 0.00 73 1013.7
20260505084400 15 180 4.8 12.9 0.00 0.00 0.00 73 1013.8
20260505083856 15 184 6.4 14.5 0.00 0.00 0.00 73 1013.8
20260505083355 15 232 4.8 14.5 0.00 0.00 0.00 73 1013.9
20260505082911 15 188 4.8 19.3 0.00 0.00 0.00 72 1013.8
20260505081921 15 183 3.2 19.3 0.00 0.00 0.00 72 1013.7
20260505081418 15 207 4.8 16.1 0.00 0.00 0.00 72 1013.7
20260505080422 16 182 4.8 17.7 0.00 0.00 0.00 72 1013.6
20260505075903 16 232 6.4 17.7 0.00 0.00 0.00 71 1013.7
20260505074836 16 241 6.4 12.9 0.00 0.00 0.00 71 1013.7
20260505074341 16 193 8.0 17.7 0.00 0.00 0.00 71 1013.7
20260505073901 16 207 4.8 17.7 0.00 0.00 0.00 70 1013.7
20260505073419 16 178 3.2 14.5 0.00 0.00 0.00 70 1013.5
20260505072824 16 169 4.8 14.5 0.00 0.00 0.00 70 1013.4
20260505072344 16 261 4.8 14.5 0.00 0.00 0.00 69 1013.4
20260505071833 16 117 3.2 16.1 0.00 0.00 0.00 69 1013.4
20260505071326 16 223 6.4 16.1 0.00 0.00 0.00 69 1013.4
20260505070840 16 259 6.4 14.5 0.00 0.00 0.00 69 1013.3
20260505070400 16 169 6.4 14.5 0.00 0.00 0.00 69 1013.2
20260505065906 16 284 4.8 16.1 0.00 0.00 0.00 68 1013.2
20260505064834 16 245 6.4 19.3 0.00 0.00 0.00 67 1013.2
20260505064357 16 171 4.8 16.1 0.00 0.00 0.00 67 1013.3
20260505063906 16 178 6.4 14.5 0.00 0.00 0.00 67 1013.4
20260505063356 16 196 4.8 17.7 0.00 0.00 0.00 66 1013.4
20260505062902 17 208 6.4 19.3 0.00 0.00 0.00 66 1013.4
20260505062407 17 181 8.0 19.3 0.00 0.00 0.00 66 1013.4
20260505061912 17 226 8.0 19.3 0.00 0.00 0.00 66 1013.4
20260505061423 17 177 8.0 19.3 0.00 0.00 0.00 66 1013.4
20260505060326 17 199 9.7 20.9 0.00 0.00 0.00 65 1013.5
20260505060103 16 175 3.2 16.1 0.00 0.00 0.00 65 1013.4
20260505055825 17 165 8.0 16.1 0.00 0.00 0.00 65 1013.5
20260505055341 17 219 4.8 20.9 0.00 0.00 0.00 65 1013.6
20260505054838 17 186 8.0 20.9 0.00 0.00 0.00 65 1013.8
20260505054512 17 252 3.2 16.1 0.00 0.00 0.00 65 1013.8
20260505054332 17 203 9.7 17.7 0.00 0.00 0.00 65 1013.7
20260505053821 17 183 6.4 19.3 0.00 0.00 0.00 65 1013.6
20260505053339 17 213 8.0 20.9 0.00 0.00 0.00 65 1013.6
20260505053024 17 179 6.4 20.9 0.00 0.00 0.00 65 1013.6
20260505052857 17 201 12.9 20.9 0.00 0.00 0.00 64 1013.6
20260505052329 17 238 4.8 20.9 0.00 0.00 0.00 65 1013.6
20260505051822 17 249 9.7 20.9 0.00 0.00 0.00 64 1013.7
20260505051533 17 173 4.8 24.1 0.00 0.00 0.00 64 1013.7
20260505051342 17 223 6.4 24.1 0.00 0.00 0.00 64 1013.7
20260505050839 17 176 9.7 24.1 0.00 0.00 0.00 65 1013.7
20260505041407 17 228 8.0 19.3 0.00 0.00 0.00 64 1013.7
20260505040856 18 215 8.0 22.5 0.00 0.00 0.00 64 1013.7
20260505040329 18 239 12.9 22.5 0.00 0.00 0.00 64 1013.6
20260505035850 18 349 9.7 32.2 0.00 0.00 0.00 63 1013.6
20260505035324 18 227 12.9 32.2 0.00 0.00 0.00 63 1013.6
20260505034840 18 211 8.0 19.3 0.00 0.00 0.00 63 1013.5
20260505034343 18 234 8.0 20.9 0.00 0.00 0.00 63 1013.5
20260505033837 18 199 9.7 20.9 0.00 0.00 0.00 63 1013.5
20260505033331 18 245 6.4 29.0 0.00 0.00 0.00 63 1013.5
20260505032828 18 227 9.7 29.0 0.00 0.00 0.00 63 1013.5
20260505031853 18 194 9.7 24.1 0.00 0.00 0.00 63 1013.6
20260505031410 18 252 9.7 24.1 0.00 0.00 0.00 63 1013.4
20260505030421 18 203 9.7 25.7 0.00 0.00 0.00 64 1013.5
20260505025856 18 218 9.7 35.4 0.00 0.00 0.00 64 1013.5
20260505025357 18 246 11.3 35.4 0.00 0.00 0.00 64 1013.7
20260505024340 18 187 8.0 22.5 0.00 0.00 0.00 64 1013.4
20260505023836 18 187 8.0 22.5 0.00 0.00 0.00 64 1013.4
20260505022854 18 222 8.0 37.0 0.00 0.00 0.00 64 1013.3
20260505022417 18 227 11.3 37.0 0.00 0.00 0.00 64 1013.3
20260505021928 18 234 11.3 29.0 0.00 0.00 0.00 64 1013.2
20260505020830 18 197 11.3 24.1 0.00 0.00 0.00 64 1013.4
20260505020335 18 217 9.7 29.0 0.00 0.00 0.00 65 1013.6
20260505015847 18 193 9.7 29.0 0.00 0.00 0.00 65 1013.4
20260505015414 18 221 9.7 19.3 0.00 0.00 0.00 65 1013.3
20260505014911 18 179 526.3 526.3 0.00 0.00 0.00 64 1013.3
20260505014356 18 217 6.4 22.5 0.00 0.00 0.00 64 1013.2
20260505013902 18 195 4.8 22.5 0.00 0.00 0.00 64 1013.2
20260505013351 19 199 9.7 19.3 0.00 0.00 0.00 64 1013.2
20260505012855 19 191 8.0 19.3 0.00 0.00 0.00 64 1013.1
20260505012347 19 185 9.7 19.3 0.00 0.00 0.00 64 1013.2
20260505011911 19 217 8.0 19.3 0.00 0.00 0.00 64 1013.1
20260505011332 19 223 8.0 16.1 0.00 0.00 0.00 64 1013.0
20260505010849 19 273 8.0 17.7 0.00 0.00 0.00 63 1012.9
20260505010345 19 198 8.0 22.5 0.00 0.00 0.00 63 1012.8
20260505005850 19 209 4.8 22.5 0.00 0.00 0.00 63 1012.7
20260505005336 19 190 3.2 14.5 0.00 0.00 0.00 63 1012.6
20260505004839 19 207 6.4 14.5 0.00 0.00 0.00 63 1012.7
20260505004333 19 207 6.4 19.3 0.00 0.00 0.00 62 1012.6
20260505003847 20 237 4.8 19.3 0.00 0.00 0.00 62 1012.6
20260505003347 20 205 3.2 14.5 0.00 0.00 0.00 62 1012.4
20260505002850 20 229 3.2 20.9 0.00 0.00 0.00 61 1012.5
20260505002406 20 188 9.7 22.5 0.00 0.00 0.00 61 1012.4
20260505001913 20 175 526.3 526.3 0.00 0.00 0.00 60 1012.3
20260505001413 20 164 6.4 16.1 0.00 0.00 0.00 60 1012.2
20260505000917 20 199 6.4 17.7 0.00 0.00 0.00 59 1012.3
20260504235826 20 221 6.4 20.9 0.00 0.00 0.00 59 1012.0
20260504235346 21 223 6.4 19.3 0.00 0.00 0.00 58 1011.9
20260504234913 21 201 4.8 20.9 0.00 0.00 0.00 58 1011.9
20260504233914 21 198 4.8 19.3 0.00 0.00 0.00 58 1011.9
20260504233331 21 114 11.3 20.9 0.00 0.00 0.00 57 1011.7
20260504232857 21 208 8.0 19.3 0.00 0.00 0.00 56 1011.8
20260504232411 21 167 9.7 29.0 0.00 0.00 0.00 56 1011.6
20260504231914 21 229 11.3 29.0 0.00 0.00 0.00 55 1011.6
20260504231428 22 223 11.3 19.3 0.00 0.00 0.00 55 1011.5
20260504230913 22 160 9.7 29.0 0.00 0.00 0.00 54 1011.4
20260504230418 22 241 11.3 29.0 0.00 0.00 0.00 53 1011.5
20260504225856 22 190 14.5 29.0 0.00 0.00 0.00 52 1011.5
20260504225350 23 119 8.0 24.1 0.00 0.00 0.00 50 1011.4
20260504223822 24 180 6.4 19.3 0.00 0.00 0.00 38 1011.2
20260504223345 24 182 9.7 20.9 0.00 0.00 0.00 37 1011.2
20260504222901 24 205 11.3 20.9 0.00 0.00 0.00 37 1011.2
20260504222421 24 225 6.4 35.4 0.00 0.00 0.00 37 1011.1
20260504221828 24 180 16.1 35.4 0.00 0.00 0.00 36 1011.1
20260504221323 25 238 11.3 25.7 0.00 0.00 0.00 37 1011.2
20260504220846 25 198 9.7 24.1 0.00 0.00 0.00 36 1011.1
20260504220410 25 242 9.7 24.1 0.00 0.00 0.00 36 1011.1
20260504215923 25 165 6.4 20.9 0.00 0.00 0.00 36 1011.1
20260504215408 25 173 6.4 19.3 0.00 0.00 0.00 36 1011.1
20260504214916 25 203 4.8 24.1 0.00 0.00 0.00 36 1011.2
20260504214330 26 164 8.0 29.0 0.00 0.00 0.00 34 1011.2
20260504212916 26 227 12.9 32.2 0.00 0.00 0.00 33 1011.3
20260504212407 26 186 11.3 24.1 0.00 0.00 0.00 33 1011.4
20260504211903 26 260 9.7 24.1 0.00 0.00 0.00 34 1011.4
20260504211342 26 193 9.7 22.5 0.00 0.00 0.00 33 1011.3
20260504210845 26 169 12.9 24.1 0.00 0.00 0.00 33 1011.4
20260504205847 26 163 4.8 25.7 0.00 0.00 0.00 34 1011.4
20260504205351 26 169 6.4 30.6 0.00 0.00 0.00 34 1011.5
20260504204910 26 176 14.5 30.6 0.00 0.00 0.00 33 1011.6
20260504203912 27 175 9.7 20.9 0.00 0.00 0.00 33 1011.4
20260504203406 27 202 9.7 22.5 0.00 0.00 0.00 33 1011.5
20260504202909 27 161 9.7 25.7 0.00 0.00 0.00 33 1011.5
20260504202328 27 217 6.4 25.7 0.00 0.00 0.00 34 1011.6
20260504201941 27 209 6.4 19.3 0.00 0.00 0.00 34 1011.5
20260504201325 26 245 4.8 33.8 0.00 0.00 0.00 34 1011.6
20260504200845 26 223 6.4 19.3 0.00 0.00 0.00 34 1011.5
20260504200347 26 165 8.0 37.0 0.00 0.00 0.00 32 1011.7
20260504195839 26 268 8.0 37.0 0.00 0.00 0.00 33 1011.7
20260504195342 26 165 9.7 29.0 0.00 0.00 0.00 34 1011.7
20260504194845 26 235 12.9 29.0 0.00 0.00 0.00 33 1012.0
20260504194356 26 198 6.4 24.1 0.00 0.00 0.00 34 1011.9
20260504193908 26 207 11.3 24.1 0.00 0.00 0.00 34 1012.1
20260504193410 27 168 9.7 22.5 0.00 0.00 0.00 33 1012.1
20260504192909 27 252 6.4 16.1 0.00 0.00 0.00 35 1012.3
20260504192415 26 222 3.2 11.3 0.00 0.00 0.00 37 1012.1
20260504191909 26 136 3.2 25.7 0.00 0.00 0.00 37 1012.3
20260504191401 26 253 14.5 25.7 0.00 0.00 0.00 35 1012.3
20260504190346 26 171 4.8 25.7 0.00 0.00 0.00 36 1012.3
20260504185854 26 238 6.4 25.7 0.00 0.00 0.00 35 1012.5
20260504185411 26 244 11.3 33.8 0.00 0.00 0.00 35 1012.6
20260504184909 26 234 9.7 33.8 0.00 0.00 0.00 36 1012.7
20260504183845 26 186 8.0 20.9 0.00 0.00 0.00 37 1012.9
20260504183348 26 230 4.8 16.1 0.00 0.00 0.00 38 1012.9
20260504182850 26 315 4.8 25.7 0.00 0.00 0.00 41 1013.0
20260504181824 26 208 8.0 33.8 0.00 0.00 0.00 36 1013.2
20260504181323 25 310 4.8 19.3 0.00 0.00 0.00 39 1013.2
20260504180843 25 210 4.8 30.6 0.00 0.00 0.00 38 1013.2
20260504180342 25 241 9.7 30.6 0.00 0.00 0.00 38 1013.3
20260504175832 25 184 8.0 20.9 0.00 0.00 0.00 38 1013.5
20260504174917 25 186 8.0 37.0 0.00 0.00 0.00 37 1013.4
20260504174417 25 213 6.4 37.0 0.00 0.00 0.00 37 1013.4
20260504173832 25 190 8.0 16.1 0.00 0.00 0.00 38 1013.4
20260504173343 25 121 4.8 20.9 0.00 0.00 0.00 42 1013.4
20260504172834 25 201 8.0 20.9 0.00 0.00 0.00 40 1013.5
20260504172329 25 360 9.7 17.7 0.00 0.00 0.00 38 1013.6
20260504171853 25 227 6.4 29.0 0.00 0.00 0.00 38 1013.6
20260504171352 25 217 8.0 29.0 0.00 0.00 0.00 37 1013.7
20260504170855 25 180 6.4 20.9 0.00 0.00 0.00 39 1013.6
20260504170350 25 184 6.4 17.7 0.00 0.00 0.00 38 1013.7
20260504160423 23 168 8.0 22.5 0.00 0.00 0.00 43 1014.3